Auburn, CA

10:29 PM PST on November 19, 2019 (GMT -0800)
Auburn Municipal

Weather History for KAUN - September, 2019

Change the Weather History Date:

Friday, September 27, 2019

  Actual Average Record
Temperature  
Mean Temperature 63 °F -  
Max Temperature 69 °F 81 °F 102 °F (1963)
Min Temperature 57 °F 54 °F 41 °F (1948)
Degree Days  
Heating Degree Days 2    
Growing Degree Days 13 (Base 50)    
Moisture  
Dew Point 55 °F    
Average Humidity 77    
Maximum Humidity 94    
Minimum Humidity 55    
Precipitation  
Precipitation 0.00 in - - ()
Sea Level Pressure  
Sea Level Pressure 29.88 in    
Wind  
Wind Speed 7 mph ()    
Max Wind Speed 13 mph    
Max Gust Speed 18 mph    
Visibility 9.7 miles    
Events      
Averages and records for this station are not official NWS values.
T = Trace of Precipitation, MM = Missing Value Source: Averaged Metar Reports

Daily Weather History Graph

Daily Weather History Graph

Search for Another Location

Airport or City:

Astronomy

Sep. 27, 2019 Rise Set
Actual Time 6:56 AM PDT 6:53 PM PDT
Civil Twilight 6:29 AM PDT 7:20 PM PDT
Nautical Twilight 5:58 AM PDT 7:51 PM PDT
Astronomical Twilight 5:27 AM PDT 8:22 PM PDT
Moon 5:25 AM PDT (9/27) 6:46 PM PDT (9/27)
Length of Visible Light 12h 50m
Length of Day
11h 57m
Waning Crescent, 1% of the Moon is Illuminated
Sep 27
Waning Crescent
Sep 28
New
Oct 5
First Quarter
Oct 13
Full
Oct 21
Last Quarter

Hourly Weather History & Observations

Time (PDT) Temp. Dew Point Humidity Pressure Visibility Wind Dir Wind Speed Gust Speed Precip Events Conditions
12:15 AM 62.6 °F 55.4 °F 77% 29.95 in 10.0 mi SE 11.5 mph 18.4 mph N/A   Clear
12:35 AM 62.6 °F 55.4 °F 77% 29.95 in 10.0 mi SE 12.7 mph - N/A   Clear
12:55 AM 62.6 °F 55.4 °F 77% 29.95 in 10.0 mi SE 9.2 mph - N/A   Clear
1:15 AM 62.6 °F 55.4 °F 77% 29.94 in 10.0 mi SE 10.4 mph - N/A   Clear
1:35 AM 62.6 °F 55.4 °F 77% 29.93 in 10.0 mi SE 9.2 mph - N/A   Clear
1:55 AM 62.6 °F 55.4 °F 77% 29.93 in 10.0 mi SE 10.4 mph - N/A   Clear
2:15 AM 60.8 °F 55.4 °F 82% 29.95 in 10.0 mi Calm Calm - N/A   Clear
2:35 AM 60.8 °F 57.2 °F 88% 29.94 in 10.0 mi Calm Calm - N/A   Clear
2:55 AM 59.0 °F 57.2 °F 94% 29.95 in 10.0 mi Calm Calm - N/A   Partly Cloudy
3:15 AM 59.0 °F 57.2 °F 94% 29.95 in 10.0 mi Variable 4.6 mph - N/A   Mostly Cloudy
3:35 AM 59.0 °F 57.2 °F 94% 29.94 in 10.0 mi South 4.6 mph 11.5 mph N/A   Overcast
3:55 AM 59.0 °F 57.2 °F 94% 29.94 in 10.0 mi SSE 5.8 mph 12.7 mph N/A   Overcast
4:15 AM 59.0 °F 57.2 °F 94% 29.93 in 10.0 mi SE 9.2 mph - N/A   Overcast
4:35 AM 59.0 °F 57.2 °F 94% 29.92 in 10.0 mi SSE 11.5 mph - N/A   Overcast
4:55 AM 59.0 °F 57.2 °F 94% 29.93 in 10.0 mi SE 11.5 mph - N/A   Overcast
5:15 AM 59.0 °F 57.2 °F 94% 29.94 in 10.0 mi SSE 5.8 mph - N/A   Overcast
5:35 AM 59.0 °F 57.2 °F 94% 29.93 in 10.0 mi SE 6.9 mph - N/A   Overcast
5:55 AM 59.0 °F 57.2 °F 94% 29.93 in 10.0 mi SSE 9.2 mph 15.0 mph N/A   Overcast
6:15 AM 59.0 °F 57.2 °F 94% 29.93 in 10.0 mi SSE 6.9 mph 12.7 mph N/A   Overcast
6:35 AM 59.0 °F 57.2 °F 94% 29.94 in 8.0 mi SSE 9.2 mph - N/A   Overcast
6:55 AM 59.0 °F 57.2 °F 94% 29.94 in 6.0 mi SE 10.4 mph - N/A   Overcast
7:15 AM 59.0 °F 57.2 °F 94% 29.94 in 7.0 mi SSE 6.9 mph 13.8 mph N/A   Overcast
7:35 AM 59.0 °F 57.2 °F 94% 29.95 in 5.0 mi SSE 6.9 mph - N/A   Overcast
7:55 AM 59.0 °F 57.2 °F 94% 29.95 in 6.0 mi SSE 5.8 mph 11.5 mph N/A   Overcast
8:15 AM 59.0 °F 55.4 °F 88% 29.95 in 8.0 mi SSE 8.1 mph 13.8 mph N/A   Overcast
8:35 AM 59.0 °F 57.2 °F 94% 29.95 in 8.0 mi SSE 5.8 mph - N/A   Overcast
8:55 AM 59.0 °F 55.4 °F 88% 29.96 in 10.0 mi SE 9.2 mph - N/A   Overcast
9:15 AM 59.0 °F 55.4 °F 88% 29.96 in 10.0 mi Calm Calm - N/A   Overcast
9:35 AM 59.0 °F 55.4 °F 88% 29.96 in 10.0 mi SSE 9.2 mph - N/A   Overcast
9:55 AM 60.8 °F 55.4 °F 82% 29.95 in 10.0 mi SSE 8.1 mph - N/A   Overcast
10:15 AM 60.8 °F 55.4 °F 82% 29.95 in 10.0 mi SSE 6.9 mph 12.7 mph N/A   Overcast
10:30 AM 60.8 °F 55.4 °F 82% 29.95 in 10.0 mi SE 10.4 mph - N/A   Overcast
10:55 AM 60.8 °F 55.4 °F 82% 29.94 in 10.0 mi SSE 8.1 mph - N/A   Overcast
11:15 AM 62.6 °F 55.4 °F 77% 29.94 in 10.0 mi SE 10.4 mph 17.3 mph N/A   Overcast
11:35 AM 62.6 °F 55.4 °F 77% 29.93 in 10.0 mi SSE 10.4 mph - N/A   Overcast
11:55 AM 64.4 °F 55.4 °F 73% 29.92 in 10.0 mi South 8.1 mph - N/A   Overcast
12:15 PM 66.2 °F 55.4 °F 68% 29.92 in 10.0 mi South 8.1 mph - N/A   Overcast
12:35 PM 68.0 °F 55.4 °F 64% 29.90 in 10.0 mi SSW 9.2 mph - N/A   Mostly Cloudy
12:55 PM 68.0 °F 55.4 °F 64% 29.90 in 10.0 mi SSW 8.1 mph 16.1 mph N/A   Mostly Cloudy
1:15 PM 68.0 °F 55.4 °F 64% 29.90 in 10.0 mi SW 6.9 mph - N/A   Mostly Cloudy
1:35 PM 68.0 °F 55.4 °F 64% 29.89 in 10.0 mi SSW 10.4 mph - N/A   Mostly Cloudy
1:55 PM 68.0 °F 55.4 °F 64% 29.88 in 10.0 mi SSW 8.1 mph - N/A   Mostly Cloudy
2:15 PM 68.0 °F 55.4 °F 64% 29.87 in 10.0 mi South 9.2 mph - N/A   Scattered Clouds
2:35 PM 68.0 °F 55.4 °F 64% 29.86 in 10.0 mi SSW 8.1 mph - N/A   Partly Cloudy
2:55 PM 69.8 °F 55.4 °F 60% 29.85 in 10.0 mi SSW 9.2 mph - N/A   Clear
3:15 PM 69.8 °F 55.4 °F 60% 29.85 in 10.0 mi SSW 6.9 mph 13.8 mph N/A   Partly Cloudy
3:35 PM 69.8 °F 55.4 °F 60% 29.83 in 10.0 mi South 9.2 mph 15.0 mph N/A   Partly Cloudy
3:55 PM 69.8 °F 55.4 °F 60% 29.83 in 10.0 mi SSW 6.9 mph 13.8 mph N/A   Clear
4:15 PM 69.8 °F 55.4 °F 60% 29.83 in 10.0 mi SSW 8.1 mph 15.0 mph N/A   Partly Cloudy
4:35 PM 68.0 °F 55.4 °F 64% 29.83 in 10.0 mi SW 6.9 mph 13.8 mph N/A   Partly Cloudy
4:55 PM 68.0 °F 55.4 °F 64% 29.82 in 10.0 mi SSW 9.2 mph - N/A   Scattered Clouds
5:15 PM 68.0 °F 55.4 °F 64% 29.82 in 10.0 mi Calm Calm - N/A   Partly Cloudy
5:35 PM 68.0 °F 55.4 °F 64% 29.81 in 10.0 mi Calm Calm - N/A   Clear
5:55 PM 68.0 °F 55.4 °F 64% 29.81 in 10.0 mi Calm Calm - N/A   Clear
6:15 PM 66.2 °F 55.4 °F 68% 29.80 in 10.0 mi Calm Calm - N/A   Clear
6:35 PM 66.2 °F 55.4 °F 68% 29.80 in 10.0 mi Calm Calm - N/A   Clear
6:55 PM 66.2 °F 55.4 °F 68% 29.79 in 10.0 mi Calm Calm - N/A   Clear
7:15 PM 64.4 °F 55.4 °F 73% 29.79 in 10.0 mi Calm Calm - N/A   Clear
7:35 PM 64.4 °F 55.4 °F 73% 29.79 in 10.0 mi Calm Calm - N/A   Clear
7:55 PM 62.6 °F 55.4 °F 77% 29.79 in 10.0 mi Calm Calm - N/A   Clear
8:15 PM 62.6 °F 55.4 °F 77% 29.78 in 10.0 mi Calm Calm - N/A   Clear
8:35 PM 62.6 °F 53.6 °F 72% 29.79 in 10.0 mi Calm Calm - N/A   Clear
8:55 PM 60.8 °F 53.6 °F 77% 29.79 in 10.0 mi Calm Calm - N/A   Clear
9:15 PM 60.8 °F 53.6 °F 77% 29.78 in 10.0 mi SE 9.2 mph - N/A   Clear
9:35 PM 60.8 °F 51.8 °F 72% 29.78 in 10.0 mi SE 8.1 mph - N/A   Clear
9:55 PM 60.8 °F 50.0 °F 68% 29.78 in 10.0 mi SE 9.2 mph - N/A   Clear
10:15 PM 59.0 °F 44.6 °F 59% 29.78 in 10.0 mi SE 9.2 mph 15.0 mph N/A   Clear
10:35 PM 59.0 °F 42.8 °F 55% 29.77 in 10.0 mi SE 5.8 mph 13.8 mph N/A   Clear
10:55 PM 59.0 °F 44.6 °F 59% 29.77 in 10.0 mi Calm Calm 11.5 mph N/A   Clear
11:15 PM 57.2 °F 46.4 °F 67% 29.77 in 10.0 mi Calm Calm - N/A   Clear
11:35 PM 57.2 °F 48.2 °F 72% 29.77 in 10.0 mi Calm Calm - N/A   Clear
11:55 PM 57.2 °F 46.4 °F 67% 29.77 in 10.0 mi Calm Calm - N/A   Clear